contact:dominique.lefevre@mio.osupytheas.fr, maurice.libes@osupytheas.fr, didier.mallarino@osupytheas.fr
Project:EMSO http://www.emso-fr.org/EMSO-France
Depth: 2436.0 m
Title:EMSO Ligure Ouest : Data MII capteur AQUADOPP
Date,Latitude,Longitude,X_East,Y_North,Z_Up,Amplitude_X,Amplitude_Y,Amplitude_Z,Batterie,SoundSpeed,Heading,Pitch,Roll,Pressure,TIS,Speed,Direction
, degrees North, degrees East, m.s-1, m.s-1,m.s-1, 1, 1, 1, Volt, m.s-1, degree, degree, degree, dbar, degree_C, m.s-1, degree
2021-06-11T00:04:03,42.805,6.029,0.001,-0.015,0.008,103.0,104.0,102.0,13.4,1505.2,328.3,-0.8,1.8,2470.586,13.28,0.015,176.2
2021-06-11T00:07:03,42.805,6.029,0.011,-0.018,-0.004,103.0,103.0,102.0,13.3,1505.2,329.1,-0.8,1.9,2470.508,13.28,0.021,148.6
2021-06-11T00:10:03,42.805,6.029,0.023,-0.002,0.001,103.0,104.0,101.0,13.3,1505.2,326.0,-0.7,1.8,2470.55,13.28,0.023,95.0
2021-06-11T00:13:03,42.805,6.029,0.011,-0.018,0.02,103.0,105.0,101.0,13.4,1505.2,326.3,-0.8,1.8,2470.562,13.28,0.021,148.6
2021-06-11T00:16:03,42.805,6.029,0.032,-0.013,-0.006,103.0,103.0,101.0,13.4,1505.2,328.1,-0.8,1.8,2470.529,13.28,0.034,112.1
2021-06-11T00:19:03,42.805,6.029,0.017,-0.012,0.011,103.0,102.0,101.0,13.4,1505.2,328.2,-0.8,1.8,2470.524,13.28,0.02,125.2
2021-06-11T00:22:03,42.805,6.029,0.006,-0.012,0.003,103.0,104.0,102.0,13.4,1505.2,325.7,-0.8,1.8,2470.513,13.28,0.013,153.4
2021-06-11T00:25:03,42.805,6.029,-0.011,-0.011,0.003,104.0,103.0,102.0,13.3,1505.2,327.7,-0.7,1.8,2470.516,13.28,0.015,225.0
2021-06-11T00:28:03,42.805,6.029,0.014,-0.024,-0.018,103.0,103.0,102.0,13.4,1505.2,327.3,-0.7,1.9,2470.482,13.28,0.027,149.7
2021-06-11T00:31:03,42.805,6.029,0.018,-0.011,-0.028,103.0,102.0,102.0,13.3,1505.2,326.7,-0.7,1.8,2470.518,13.28,0.021,121.4
2021-06-11T00:34:03,42.805,6.029,0.018,-0.016,0.018,102.0,104.0,101.0,13.4,1505.2,330.1,-0.7,1.8,2470.503,13.28,0.024,131.6
2021-06-11T00:37:03,42.805,6.029,0.03,-0.018,0.021,104.0,103.0,101.0,13.4,1505.2,328.7,-0.7,1.8,2470.534,13.28,0.034,121.0
2021-06-11T00:40:03,42.805,6.029,0.012,-0.001,0.017,103.0,104.0,101.0,13.4,1505.2,325.5,-0.8,1.8,2470.488,13.28,0.012,94.8
2021-06-11T00:43:03,42.805,6.029,0.026,-0.026,0.02,104.0,103.0,102.0,13.4,1505.2,326.5,-0.8,1.8,2470.503,13.28,0.036,135.0
2021-06-11T00:46:03,42.805,6.029,0.012,-0.02,-0.007,104.0,104.0,100.0,13.4,1505.2,329.5,-0.7,1.8,2470.486,13.28,0.023,149.0
2021-06-11T00:49:03,42.805,6.029,0.001,-0.029,-0.028,104.0,104.0,101.0,13.3,1505.2,327.2,-0.8,1.8,2470.452,13.28,0.029,178.0
2021-06-11T00:52:03,42.805,6.029,0.034,-0.021,0.013,103.0,104.0,101.0,13.3,1505.2,329.5,-0.8,1.8,2470.517,13.28,0.039,121.7
2021-06-11T00:55:03,42.805,6.029,0.019,-0.01,-0.024,102.0,103.0,101.0,13.4,1505.2,328.4,-0.8,1.8,2470.515,13.28,0.021,117.8
2021-06-11T00:58:03,42.805,6.029,0.015,-0.012,-0.001,103.0,104.0,101.0,13.4,1505.2,327.0,-0.8,1.8,2470.511,13.28,0.019,128.7
2021-06-11T01:04:03,42.805,6.029,0.017,-0.036,0.014,103.0,103.0,101.0,13.3,1505.2,327.8,-0.8,1.8,2470.529,13.28,0.039,154.7
2021-06-11T01:07:03,42.805,6.029,0.029,-0.008,0.0,103.0,104.0,101.0,13.4,1505.2,329.8,-0.8,1.8,2470.518,13.28,0.03,105.4
2021-06-11T01:10:03,42.805,6.029,0.01,-0.019,0.009,102.0,104.0,102.0,13.4,1505.2,326.6,-0.8,1.8,2470.535,13.28,0.021,152.2
2021-06-11T01:13:03,42.805,6.029,0.05,-0.012,-0.007,103.0,103.0,101.0,13.3,1505.2,328.2,-0.8,1.8,2470.494,13.28,0.051,103.5
2021-06-11T01:16:03,42.805,6.029,0.008,-0.014,-0.015,102.0,102.0,101.0,13.4,1505.2,329.6,-0.8,1.8,2470.447,13.28,0.016,150.3
2021-06-11T01:19:03,42.805,6.029,0.026,-0.028,0.01,103.0,102.0,102.0,13.4,1505.2,326.5,-0.7,1.8,2470.492,13.28,0.038,137.1
2021-06-11T01:22:03,42.805,6.029,0.021,-0.005,0.018,103.0,103.0,102.0,13.3,1505.2,329.7,-0.8,1.8,2470.53,13.28,0.021,103.4
2021-06-11T01:25:03,42.805,6.029,0.022,-0.012,-0.01,103.0,104.0,100.0,13.4,1505.2,328.8,-0.7,1.8,2470.507,13.28,0.025,118.6
2021-06-11T01:28:03,42.805,6.029,0.004,-0.027,-0.019,103.0,103.0,101.0,13.3,1505.2,324.7,-0.8,1.8,2470.476,13.28,0.027,171.6
2021-06-11T01:31:03,42.805,6.029,0.008,-0.024,-0.014,103.0,103.0,100.0,13.4,1505.2,324.6,-0.7,1.8,2470.501,13.28,0.025,161.6
2021-06-11T01:34:03,42.805,6.029,0.029,-0.008,0.011,103.0,104.0,101.0,13.4,1505.2,329.6,-0.8,1.8,2470.462,13.28,0.03,105.4
2021-06-11T01:37:03,42.805,6.029,0.0,-0.01,-0.018,102.0,103.0,101.0,13.4,1505.2,327.9,-0.8,1.8,2470.476,13.28,0.01,180.0
2021-06-11T01:40:03,42.805,6.029,0.003,-0.001,0.005,103.0,103.0,101.0,13.4,1505.2,325.7,-0.7,1.8,2470.488,13.28,0.003,108.4
2021-06-11T01:43:03,42.805,6.029,0.025,-0.009,0.016,102.0,102.0,102.0,13.4,1505.2,326.3,-0.8,1.8,2470.546,13.28,0.026,109.8
2021-06-11T01:46:03,42.805,6.029,0.012,-0.025,0.018,103.0,103.0,101.0,13.3,1505.2,329.6,-0.8,1.9,2470.489,13.28,0.027,154.4
2021-06-11T01:49:03,42.805,6.029,-0.01,-0.012,0.003,103.0,103.0,101.0,13.4,1505.2,328.4,-0.8,1.9,2470.497,13.28,0.015,219.8
2021-06-11T01:52:03,42.805,6.029,0.005,-0.018,0.0,103.0,102.0,101.0,13.4,1505.2,328.8,-0.8,1.8,2470.442,13.28,0.018,164.5
2021-06-11T01:55:03,42.805,6.029,0.011,-0.008,0.016,102.0,104.0,101.0,13.4,1505.2,326.4,-0.8,1.8,2470.467,13.28,0.013,126.0
2021-06-11T01:58:03,42.805,6.029,0.018,-0.022,-0.001,102.0,105.0,101.0,13.3,1505.2,328.2,-0.8,1.8,2470.471,13.28,0.028,140.7
2021-06-11T02:04:03,42.805,6.029,0.01,-0.011,0.008,102.0,103.0,102.0,13.4,1505.2,328.1,-0.8,1.8,2470.559,13.28,0.014,137.7
2021-06-11T02:07:03,42.805,6.029,0.029,-0.024,0.022,103.0,103.0,100.0,13.4,1505.2,328.1,-0.8,1.8,2470.525,13.28,0.037,129.6
2021-06-11T02:10:03,42.805,6.029,0.008,-0.011,-0.004,102.0,104.0,103.0,13.4,1505.2,328.5,-0.7,1.8,2470.504,13.28,0.013,144.0
2021-06-11T02:13:03,42.805,6.029,0.044,-0.03,0.02,103.0,104.0,102.0,13.4,1505.2,327.9,-0.7,1.8,2470.47,13.28,0.053,124.3
2021-06-11T02:16:03,42.805,6.029,0.017,-0.028,-0.01,103.0,103.0,100.0,13.4,1505.2,328.9,-0.7,1.8,2470.483,13.28,0.032,148.7
2021-06-11T02:19:03,42.805,6.029,0.014,0.0,-0.003,103.0,106.0,101.0,13.3,1505.2,327.0,-0.7,1.8,2470.48,13.28,0.014,90.0
2021-06-11T02:22:03,42.805,6.029,0.004,-0.027,0.019,104.0,102.0,102.0,13.4,1505.2,329.3,-0.8,1.8,2470.43,13.28,0.027,171.6
2021-06-11T02:25:03,42.805,6.029,0.021,-0.022,-0.007,102.0,102.0,102.0,13.4,1505.2,328.7,-0.7,1.8,2470.485,13.28,0.03,136.3
2021-06-11T02:28:03,42.805,6.029,0.012,-0.012,0.023,103.0,104.0,102.0,13.4,1505.2,327.0,-0.7,1.8,2470.462,13.28,0.016,135.0
2021-06-11T02:31:03,42.805,6.029,0.008,-0.034,-0.015,102.0,103.0,101.0,13.4,1505.2,327.6,-0.8,1.8,2470.477,13.28,0.034,166.8
2021-06-11T02:34:03,42.805,6.029,0.009,-0.009,0.027,103.0,103.0,102.0,13.4,1505.2,327.0,-0.7,1.8,2470.492,13.28,0.012,135.0
2021-06-11T02:37:03,42.805,6.029,0.007,-0.012,-0.002,104.0,103.0,102.0,13.4,1505.2,326.0,-0.8,1.8,2470.453,13.28,0.013,149.7
2021-06-11T02:40:03,42.805,6.029,0.014,-0.005,0.009,104.0,104.0,101.0,13.3,1505.2,327.8,-0.8,1.8,2470.462,13.28,0.014,109.6
2021-06-11T02:43:03,42.805,6.029,0.029,-0.01,0.031,104.0,102.0,102.0,13.3,1505.2,327.5,-0.7,1.8,2470.468,13.28,0.03,109.0
2021-06-11T02:46:03,42.805,6.029,0.004,-0.027,0.021,103.0,104.0,102.0,13.4,1505.2,330.0,-0.8,1.8,2470.492,13.28,0.027,171.6
2021-06-11T02:49:03,42.805,6.029,0.026,-0.005,0.026,104.0,103.0,101.0,13.3,1505.2,328.4,-0.8,1.8,2470.483,13.28,0.026,100.9
2021-06-11T02:52:03,42.805,6.029,0.014,-0.031,0.019,102.0,104.0,101.0,13.4,1505.2,328.9,-0.8,1.8,2470.52,13.28,0.034,155.7
2021-06-11T02:55:03,42.805,6.029,0.003,-0.014,-0.018,103.0,103.0,101.0,13.4,1505.2,325.5,-0.7,1.8,2470.516,13.28,0.014,167.9
2021-06-11T02:58:03,42.805,6.029,0.014,0.004,-0.031,103.0,104.0,101.0,13.3,1505.2,328.4,-0.8,1.8,2470.492,13.28,0.014,74.1
2021-06-11T03:04:03,42.805,6.029,0.027,-0.024,0.021,102.0,103.0,101.0,13.4,1505.2,328.5,-0.8,1.8,2470.539,13.28,0.036,131.6
2021-06-11T03:07:03,42.805,6.029,0.022,-0.016,-0.007,104.0,104.0,102.0,13.4,1505.2,326.2,-0.7,1.8,2470.503,13.28,0.027,126.0
2021-06-11T03:10:03,42.805,6.029,0.009,-0.017,-0.003,103.0,103.0,101.0,13.3,1505.2,325.0,-0.7,1.8,2470.474,13.28,0.019,152.1
2021-06-11T03:13:03,42.805,6.029,0.029,-0.018,0.0,104.0,102.0,101.0,13.4,1505.2,327.2,-0.7,1.9,2470.499,13.28,0.034,121.8
2021-06-11T03:16:03,42.805,6.029,0.031,-0.017,-0.016,103.0,104.0,101.0,13.3,1505.2,327.0,-0.8,1.8,2470.454,13.28,0.035,118.7
2021-06-11T03:19:03,42.805,6.029,0.004,-0.014,-0.005,103.0,103.0,101.0,13.4,1505.2,324.6,-0.7,1.8,2470.445,13.28,0.014,164.1
2021-06-11T03:22:03,42.805,6.029,0.014,-0.023,-0.001,104.0,103.0,102.0,13.4,1505.2,326.1,-0.8,1.8,2470.472,13.28,0.026,148.7
2021-06-11T03:25:03,42.805,6.029,-0.007,-0.024,-0.002,103.0,103.0,101.0,13.4,1505.2,327.9,-0.8,1.8,2470.488,13.28,0.025,196.3
2021-06-11T03:28:03,42.805,6.029,0.015,-0.01,-0.016,103.0,103.0,102.0,13.4,1505.2,328.9,-0.7,1.8,2470.487,13.28,0.018,123.7
2021-06-11T03:31:03,42.805,6.029,0.02,-0.048,-0.003,104.0,102.0,101.0,13.4,1505.2,328.9,-0.8,1.9,2470.467,13.28,0.052,157.4
2021-06-11T03:34:03,42.805,6.029,0.015,-0.024,0.003,103.0,104.0,102.0,13.4,1505.2,328.1,-0.7,1.8,2470.497,13.28,0.028,148.0
2021-06-11T03:37:03,42.805,6.029,0.018,-0.031,0.003,103.0,102.0,102.0,13.4,1505.2,327.5,-0.8,1.8,2470.489,13.28,0.035,149.9
2021-06-11T03:40:03,42.805,6.029,0.022,0.008,0.05,104.0,102.0,102.0,13.4,1505.2,330.1,-0.7,1.8,2470.471,13.28,0.023,70.0
2021-06-11T03:43:03,42.805,6.029,0.036,-0.006,-0.013,102.0,107.0,101.0,13.4,1505.2,325.7,-0.8,1.8,2470.556,13.28,0.036,99.5
2021-06-11T03:46:03,42.805,6.029,0.005,-0.016,0.017,103.0,104.0,101.0,13.4,1505.2,327.1,-0.7,1.8,2470.533,13.28,0.016,162.6
2021-06-11T03:49:03,42.805,6.029,0.001,-0.026,-0.008,103.0,103.0,102.0,13.4,1505.2,326.5,-0.8,1.8,2470.481,13.28,0.026,177.8
2021-06-11T03:52:03,42.805,6.029,0.03,-0.008,0.0,103.0,104.0,101.0,13.4,1505.2,325.7,-0.7,1.8,2470.503,13.28,0.031,104.9
2021-06-11T03:55:03,42.805,6.029,0.019,-0.019,0.036,103.0,104.0,100.0,13.4,1505.2,327.8,-0.7,1.8,2470.515,13.28,0.026,135.0
2021-06-11T03:58:03,42.805,6.029,0.014,-0.026,-0.026,103.0,103.0,102.0,13.4,1505.2,330.0,-0.7,1.8,2470.481,13.28,0.029,151.7
2021-06-11T04:04:03,42.805,6.029,0.025,-0.009,0.005,103.0,102.0,101.0,13.4,1505.2,325.9,-0.7,1.8,2470.487,13.28,0.026,109.8
2021-06-11T04:07:03,42.805,6.029,0.028,-0.022,-0.016,103.0,102.0,101.0,13.4,1505.2,327.5,-0.8,1.8,2470.487,13.28,0.035,128.2
2021-06-11T04:10:03,42.805,6.029,0.014,0.009,0.014,102.0,108.0,101.0,13.3,1505.2,328.4,-0.7,1.8,2470.496,13.28,0.016,57.3
2021-06-11T04:13:03,42.805,6.029,0.001,-0.016,0.011,105.0,103.0,101.0,13.4,1505.2,328.8,-0.8,1.8,2470.515,13.28,0.016,176.4
2021-06-11T04:16:03,42.805,6.029,0.015,-0.002,-0.001,102.0,103.0,101.0,13.4,1505.2,328.4,-0.8,1.8,2470.445,13.28,0.015,97.6
2021-06-11T04:19:03,42.805,6.029,0.03,-0.008,0.013,104.0,103.0,101.0,13.4,1505.2,326.8,-0.8,1.8,2470.508,13.28,0.031,104.9
2021-06-11T04:22:03,42.805,6.029,0.037,-0.025,0.0,104.0,102.0,101.0,13.3,1505.2,326.6,-0.8,1.8,2470.517,13.28,0.044,124.0
2021-06-11T04:25:03,42.805,6.029,0.029,-0.018,-0.029,103.0,103.0,101.0,13.3,1505.2,328.5,-0.7,1.8,2470.514,13.28,0.034,121.8
2021-06-11T04:28:03,42.805,6.029,0.026,-0.019,-0.006,102.0,103.0,101.0,13.4,1505.2,328.6,-0.8,1.8,2470.52,13.28,0.032,126.2
2021-06-11T04:31:03,42.805,6.029,0.028,-0.022,0.016,104.0,103.0,100.0,13.3,1505.2,325.2,-0.8,1.8,2470.516,13.28,0.035,128.2
2021-06-11T04:34:03,42.805,6.029,0.027,-0.018,-0.008,104.0,101.0,102.0,13.3,1505.2,324.5,-0.7,1.8,2470.486,13.28,0.032,123.7
2021-06-11T04:37:03,42.805,6.029,-0.002,-0.015,0.019,104.0,104.0,101.0,13.4,1505.2,329.4,-0.8,1.8,2470.487,13.28,0.015,187.6
2021-06-11T04:40:03,42.805,6.029,0.026,-0.009,-0.008,102.0,105.0,102.0,13.4,1505.2,328.5,-0.7,1.9,2470.582,13.28,0.027,109.1
2021-06-11T04:43:03,42.805,6.029,0.019,0.0,0.027,103.0,102.0,102.0,13.4,1505.2,329.3,-0.7,1.8,2470.51,13.28,0.019,90.0
2021-06-11T04:46:03,42.805,6.029,0.034,-0.029,0.004,102.0,103.0,101.0,13.3,1505.2,328.0,-0.8,1.8,2470.525,13.28,0.044,130.5
2021-06-11T04:49:03,42.805,6.029,0.013,-0.03,0.003,103.0,105.0,100.0,13.4,1505.2,328.5,-0.7,1.8,2470.537,13.28,0.032,156.6
2021-06-11T04:52:03,42.805,6.029,0.012,-0.012,-0.002,102.0,103.0,101.0,13.4,1505.2,328.8,-0.7,1.8,2470.578,13.28,0.016,135.0
2021-06-11T04:55:03,42.805,6.029,-0.002,-0.009,-0.029,102.0,102.0,101.0,13.3,1505.2,326.0,-0.7,1.8,2470.559,13.28,0.009,192.5
2021-06-11T04:58:03,42.805,6.029,0.04,-0.036,-0.031,103.0,102.0,101.0,13.4,1505.2,329.1,-0.8,1.8,2470.56,13.28,0.053,132.0
2021-06-11T05:04:03,42.805,6.029,0.016,-0.022,0.0,103.0,103.0,101.0,13.4,1505.2,327.2,-0.7,1.8,2470.574,13.28,0.027,144.0
2021-06-11T05:07:03,42.805,6.029,0.021,-0.022,0.009,103.0,103.0,101.0,13.4,1505.2,329.5,-0.8,1.8,2470.568,13.28,0.03,136.3
2021-06-11T05:10:03,42.805,6.029,0.021,-0.025,-0.008,102.0,103.0,102.0,13.4,1505.2,326.4,-0.8,1.8,2470.538,13.28,0.032,140.0
2021-06-11T05:13:03,42.805,6.029,0.019,-0.012,-0.01,102.0,105.0,101.0,13.4,1505.2,327.0,-0.8,1.8,2470.591,13.28,0.022,122.3
2021-06-11T05:16:03,42.805,6.029,-0.001,-0.028,0.013,103.0,104.0,102.0,13.3,1505.2,328.1,-0.8,1.8,2470.601,13.28,0.028,182.0
2021-06-11T05:19:03,42.805,6.029,0.021,-0.013,0.008,103.0,104.0,102.0,13.4,1505.2,327.4,-0.7,1.8,2470.547,13.28,0.024,121.8
2021-06-11T05:22:03,42.805,6.029,0.024,-0.004,0.026,103.0,103.0,101.0,13.3,1505.2,328.8,-0.8,1.8,2470.572,13.28,0.024,99.5
2021-06-11T05:25:03,42.805,6.029,0.018,-0.026,-0.003,104.0,103.0,101.0,13.3,1505.2,327.9,-0.7,1.8,2470.595,13.28,0.031,145.3
2021-06-11T05:28:03,42.805,6.029,0.02,-0.021,-0.001,102.0,102.0,102.0,13.4,1505.2,325.3,-0.8,1.8,2470.552,13.28,0.028,136.4
2021-06-11T05:31:03,42.805,6.029,0.028,-0.008,0.01,103.0,102.0,101.0,13.4,1505.2,327.9,-0.7,1.8,2470.562,13.28,0.029,105.9
2021-06-11T05:34:03,42.805,6.029,0.031,-0.017,-0.002,103.0,103.0,101.0,13.4,1505.2,326.8,-0.8,1.8,2470.594,13.28,0.035,118.7
2021-06-11T05:37:03,42.805,6.029,0.017,-0.006,0.038,102.0,103.0,101.0,13.4,1505.2,327.0,-0.7,1.8,2470.588,13.28,0.018,109.4
2021-06-11T05:40:03,42.805,6.029,0.005,-0.007,0.01,103.0,104.0,101.0,13.4,1505.2,328.0,-0.8,1.8,2470.605,13.28,0.008,144.5
2021-06-11T05:43:03,42.805,6.029,0.001,-0.049,-0.033,103.0,103.0,101.0,13.4,1505.2,326.7,-0.7,1.8,2470.554,13.28,0.049,178.8
2021-06-11T05:46:03,42.805,6.029,0.017,-0.012,-0.001,103.0,103.0,101.0,13.3,1505.2,324.4,-0.7,1.8,2470.57,13.28,0.02,125.2
2021-06-11T05:49:03,42.805,6.029,0.014,-0.044,0.023,103.0,102.0,100.0,13.4,1505.2,328.0,-0.7,1.8,2470.571,13.28,0.046,162.4
2021-06-11T05:52:03,42.805,6.029,0.008,-0.014,0.004,102.0,103.0,102.0,13.3,1505.2,328.1,-0.8,1.8,2470.561,13.28,0.016,150.3
2021-06-11T05:55:03,42.805,6.029,0.02,-0.027,0.006,103.0,104.0,102.0,13.4,1505.2,324.4,-0.8,1.8,2470.602,13.28,0.033,143.5
2021-06-11T05:58:03,42.805,6.029,0.015,-0.02,-0.002,103.0,102.0,101.0,13.4,1505.2,329.5,-0.8,1.8,2470.557,13.28,0.025,143.1
2021-06-11T06:04:03,42.805,6.029,-0.003,-0.015,0.014,103.0,103.0,102.0,13.3,1505.2,327.6,-0.7,1.8,2470.621,13.28,0.015,191.3
2021-06-11T06:07:03,42.805,6.029,0.003,-0.043,-0.017,102.0,103.0,102.0,13.4,1505.2,327.6,-0.7,1.8,2470.596,13.28,0.043,176.0
2021-06-11T06:10:03,42.805,6.029,0.015,-0.03,-0.026,102.0,105.0,101.0,13.4,1505.2,328.9,-0.8,1.9,2470.599,13.28,0.033,153.4
2021-06-11T06:13:03,42.805,6.029,0.004,-0.008,-0.014,103.0,104.0,102.0,13.4,1505.2,324.5,-0.8,1.8,2470.584,13.28,0.008,153.4
2021-06-11T06:16:03,42.805,6.029,0.005,-0.039,-0.02,103.0,103.0,100.0,13.4,1505.2,325.5,-0.7,1.8,2470.567,13.28,0.039,172.7
2021-06-11T06:19:03,42.805,6.029,0.014,-0.014,-0.008,103.0,104.0,101.0,13.4,1505.2,327.9,-0.7,1.8,2470.574,13.28,0.019,135.0
2021-06-11T06:22:03,42.805,6.029,0.028,-0.014,0.031,102.0,103.0,101.0,13.4,1505.2,325.5,-0.7,1.8,2470.608,13.28,0.031,116.6
2021-06-11T06:25:03,42.805,6.029,0.013,-0.008,-0.019,103.0,104.0,101.0,13.4,1505.2,328.7,-0.7,1.8,2470.63,13.28,0.015,121.6
2021-06-11T06:28:03,42.805,6.029,0.003,-0.024,0.0,103.0,103.0,101.0,13.3,1505.2,324.7,-0.8,1.8,2470.618,13.28,0.024,172.9
2021-06-11T06:31:03,42.805,6.029,0.003,-0.032,0.019,103.0,103.0,101.0,13.3,1505.2,327.2,-0.7,1.9,2470.597,13.28,0.032,174.6
2021-06-11T06:34:03,42.805,6.029,0.041,-0.025,0.002,101.0,103.0,102.0,13.3,1505.2,327.7,-0.8,1.8,2470.592,13.28,0.048,121.4
2021-06-11T06:37:03,42.805,6.029,0.023,-0.013,-0.009,103.0,101.0,102.0,13.4,1505.2,327.5,-0.8,1.8,2470.554,13.28,0.026,119.5
2021-06-11T06:40:03,42.805,6.029,0.011,-0.019,-0.003,103.0,103.0,101.0,13.4,1505.2,325.4,-0.7,1.8,2470.589,13.28,0.021,149.9
2021-06-11T06:43:03,42.805,6.029,0.016,-0.021,0.023,103.0,103.0,101.0,13.3,1505.2,325.9,-0.7,1.8,2470.584,13.28,0.026,142.7
2021-06-11T06:46:03,42.805,6.029,0.015,-0.021,-0.003,104.0,104.0,101.0,13.4,1505.2,327.3,-0.8,1.8,2470.583,13.28,0.025,144.5
2021-06-11T06:49:03,42.805,6.029,0.015,-0.016,0.001,103.0,104.0,102.0,13.4,1505.2,327.6,-0.8,1.8,2470.574,13.28,0.021,136.9
2021-06-11T06:52:03,42.805,6.029,0.017,-0.016,0.007,103.0,103.0,102.0,13.3,1505.2,327.4,-0.8,1.8,2470.593,13.28,0.023,133.3
2021-06-11T06:55:03,42.805,6.029,0.004,-0.035,0.019,103.0,103.0,102.0,13.4,1505.2,326.9,-0.7,1.8,2470.591,13.28,0.035,173.5
2021-06-11T06:58:03,42.805,6.029,0.012,-0.012,0.045,103.0,104.0,101.0,13.4,1505.2,328.2,-0.8,1.8,2470.607,13.28,0.016,135.0
2021-06-11T07:04:03,42.805,6.029,0.006,-0.013,-0.017,103.0,103.0,101.0,13.4,1505.2,324.7,-0.7,1.8,2470.596,13.28,0.014,155.2
2021-06-11T07:07:03,42.805,6.029,0.006,-0.015,-0.019,103.0,102.0,101.0,13.4,1505.2,326.7,-0.8,1.9,2470.556,13.28,0.016,158.2
2021-06-11T07:10:03,42.805,6.029,0.013,-0.017,0.012,103.0,103.0,100.0,13.4,1505.2,326.8,-0.7,1.8,2470.598,13.28,0.021,142.6
2021-06-11T07:13:03,42.805,6.029,0.008,-0.016,0.035,102.0,102.0,101.0,13.3,1505.2,327.5,-0.8,1.8,2470.58,13.28,0.017,153.4
2021-06-11T07:16:03,42.805,6.029,-0.009,-0.015,0.003,102.0,103.0,102.0,13.4,1505.2,325.9,-0.8,1.8,2470.583,13.28,0.017,211.0
2021-06-11T07:19:03,42.805,6.029,0.001,-0.008,0.015,102.0,104.0,101.0,13.4,1505.2,328.3,-0.8,1.8,2470.579,13.28,0.008,172.9
2021-06-11T07:22:03,42.805,6.029,0.014,-0.02,-0.008,103.0,103.0,101.0,13.3,1505.2,326.2,-0.8,1.8,2470.604,13.28,0.024,145.0
2021-06-11T07:25:03,42.805,6.029,0.005,-0.014,0.01,103.0,102.0,101.0,13.4,1505.2,328.3,-0.7,1.9,2470.61,13.28,0.014,160.4
2021-06-11T07:28:03,42.805,6.029,0.025,-0.01,0.005,103.0,102.0,101.0,13.4,1505.2,324.9,-0.8,1.8,2470.596,13.28,0.026,111.8
2021-06-11T07:31:03,42.805,6.029,0.001,-0.006,0.01,101.0,103.0,102.0,13.4,1505.2,329.2,-0.8,1.8,2470.561,13.28,0.006,170.5
2021-06-11T07:34:03,42.805,6.029,0.016,-0.014,0.021,101.0,104.0,101.0,13.3,1505.2,327.4,-0.8,1.8,2470.584,13.28,0.021,131.2
2021-06-11T07:37:03,42.805,6.029,0.002,-0.024,0.001,102.0,102.0,101.0,13.4,1505.2,324.4,-0.8,1.8,2470.617,13.28,0.024,175.2
2021-06-11T07:40:03,42.805,6.029,0.009,-0.007,0.013,104.0,101.0,101.0,13.3,1505.2,327.0,-0.8,1.8,2470.587,13.28,0.011,127.9
2021-06-11T07:43:03,42.805,6.029,0.007,-0.009,0.0,103.0,101.0,101.0,13.4,1505.2,326.3,-0.7,1.8,2470.541,13.28,0.011,142.1
2021-06-11T07:46:03,42.805,6.029,0.01,-0.004,-0.021,103.0,105.0,101.0,13.4,1505.2,329.8,-0.7,1.8,2470.594,13.28,0.01,111.8
2021-06-11T07:49:03,42.805,6.029,0.026,0.009,0.007,103.0,104.0,101.0,13.3,1505.2,324.7,-0.7,1.8,2470.568,13.28,0.027,70.9
2021-06-11T07:52:03,42.805,6.029,0.01,0.001,0.004,104.0,104.0,101.0,13.4,1505.2,328.7,-0.8,1.8,2470.612,13.28,0.01,84.3
2021-06-11T07:55:03,42.805,6.029,0.024,-0.015,-0.021,102.0,103.0,101.0,13.4,1505.2,326.3,-0.8,1.8,2470.586,13.28,0.028,122.0
2021-06-11T07:58:03,42.805,6.029,0.021,-0.005,0.0,104.0,103.0,102.0,13.4,1505.2,329.8,-0.8,1.8,2470.591,13.28,0.021,103.4
2021-06-11T08:04:03,42.805,6.029,0.002,-0.021,0.009,103.0,104.0,101.0,13.4,1505.2,329.0,-0.8,1.8,2470.616,13.28,0.021,174.6
2021-06-11T08:07:03,42.805,6.029,-0.005,-0.008,-0.008,104.0,104.0,101.0,13.4,1505.2,324.6,-0.7,1.8,2470.602,13.28,0.009,212.0
2021-06-11T08:10:03,42.805,6.029,0.003,-0.009,0.007,102.0,103.0,101.0,13.4,1505.2,328.0,-0.8,1.8,2470.532,13.28,0.009,161.6
2021-06-11T08:13:03,42.805,6.029,0.028,-0.022,-0.001,101.0,103.0,101.0,13.3,1505.2,328.4,-0.7,1.8,2470.598,13.28,0.035,128.2
2021-06-11T08:16:03,42.805,6.029,0.039,-0.014,0.018,103.0,104.0,101.0,13.3,1505.2,329.5,-0.7,1.8,2470.598,13.28,0.041,109.7
2021-06-11T08:19:03,42.805,6.029,0.016,-0.032,-0.007,103.0,103.0,101.0,13.4,1505.2,325.3,-0.7,1.8,2470.589,13.28,0.035,153.4
2021-06-11T08:22:03,42.805,6.029,0.021,-0.02,-0.011,102.0,104.0,101.0,13.3,1505.2,327.6,-0.7,1.9,2470.593,13.28,0.028,133.6
2021-06-11T08:25:03,42.805,6.029,0.012,-0.006,-0.005,102.0,103.0,102.0,13.4,1505.2,327.1,-0.7,1.8,2470.552,13.28,0.013,116.6
2021-06-11T08:28:03,42.805,6.029,0.003,-0.016,-0.015,103.0,102.0,101.0,13.4,1505.2,328.7,-0.8,1.8,2470.573,13.28,0.016,169.4
2021-06-11T08:31:03,42.805,6.029,0.0,0.0,0.008,105.0,102.0,101.0,13.4,1505.2,329.5,-0.7,1.8,2470.555,13.28,0.0,0.0
2021-06-11T08:34:03,42.805,6.029,0.023,-0.003,0.017,103.0,104.0,101.0,13.4,1505.2,325.9,-0.7,1.8,2470.577,13.28,0.023,97.4
2021-06-11T08:37:03,42.805,6.029,-0.01,-0.016,-0.004,104.0,103.0,101.0,13.3,1505.2,326.2,-0.7,1.8,2470.593,13.28,0.018,212.0
2021-06-11T08:40:03,42.805,6.029,0.004,-0.033,-0.016,104.0,102.0,102.0,13.4,1505.2,326.1,-0.7,1.8,2470.574,13.28,0.033,173.1
2021-06-11T08:43:03,42.805,6.029,0.022,0.003,0.02,104.0,103.0,101.0,13.4,1505.2,325.3,-0.7,1.8,2470.562,13.28,0.022,82.2
2021-06-11T08:46:03,42.805,6.029,0.012,0.011,0.034,102.0,104.0,101.0,13.4,1505.2,330.2,-0.8,1.8,2470.596,13.28,0.016,47.5
2021-06-11T08:49:03,42.805,6.029,0.019,-0.029,-0.012,103.0,103.0,101.0,13.4,1505.2,328.3,-0.7,1.8,2470.556,13.28,0.034,146.8
2021-06-11T08:52:03,42.805,6.029,0.017,-0.023,0.01,104.0,104.0,101.0,13.4,1505.2,328.9,-0.8,1.8,2470.521,13.28,0.028,143.5
2021-06-11T08:55:03,42.805,6.029,0.008,0.003,-0.005,102.0,104.0,101.0,13.4,1505.2,328.4,-0.8,1.8,2470.552,13.28,0.008,69.4
2021-06-11T08:58:03,42.805,6.029,-0.006,0.004,0.024,103.0,106.0,101.0,13.3,1505.2,328.6,-0.7,1.8,2470.554,13.28,0.007,303.7
2021-06-11T09:04:03,42.805,6.029,0.0,-0.004,0.009,102.0,103.0,101.0,13.3,1505.2,326.5,-0.7,1.8,2470.581,13.28,0.004,180.0
2021-06-11T09:07:03,42.805,6.029,0.002,-0.017,0.007,104.0,102.0,101.0,13.3,1505.2,328.5,-0.8,1.8,2470.558,13.28,0.017,173.3
2021-06-11T09:10:03,42.805,6.029,0.013,-0.019,-0.014,104.0,103.0,102.0,13.4,1505.2,326.4,-0.8,1.8,2470.487,13.28,0.023,145.6
2021-06-11T09:13:03,42.805,6.029,0.01,0.004,0.015,104.0,103.0,102.0,13.4,1505.2,326.8,-0.8,1.8,2470.533,13.28,0.01,68.2
2021-06-11T09:16:03,42.805,6.029,0.008,-0.001,-0.001,102.0,104.0,101.0,13.3,1505.2,326.4,-0.8,1.8,2470.58,13.28,0.008,97.1
2021-06-11T09:19:03,42.805,6.029,-0.001,-0.02,0.005,104.0,101.0,101.0,13.3,1505.2,328.0,-0.7,1.8,2470.533,13.28,0.02,182.9
2021-06-11T09:22:03,42.805,6.029,0.002,-0.023,-0.014,102.0,102.0,101.0,13.3,1505.2,327.9,-0.7,1.8,2470.537,13.28,0.023,175.0
2021-06-11T09:25:03,42.805,6.029,-0.012,-0.008,0.006,103.0,104.0,101.0,13.4,1505.2,327.5,-0.7,1.8,2470.564,13.28,0.014,236.3
2021-06-11T09:28:03,42.805,6.029,-0.007,-0.02,0.018,102.0,104.0,101.0,13.4,1505.2,326.0,-0.8,1.8,2470.536,13.28,0.021,199.3
2021-06-11T09:31:03,42.805,6.029,-0.009,-0.012,-0.017,104.0,102.0,100.0,13.3,1505.2,327.7,-0.7,1.8,2470.504,13.28,0.015,216.9
2021-06-11T09:34:03,42.805,6.029,0.033,-0.011,0.016,104.0,103.0,101.0,13.4,1505.2,328.1,-0.7,1.8,2470.538,13.28,0.034,108.4
2021-06-11T09:37:03,42.805,6.029,0.0,0.006,0.0,102.0,103.0,102.0,13.4,1505.2,328.0,-0.8,1.8,2470.529,13.28,0.006,0.0
2021-06-11T09:40:03,42.805,6.029,0.01,-0.006,-0.023,104.0,101.0,101.0,13.4,1505.2,328.5,-0.8,1.8,2470.53,13.28,0.011,121.0
2021-06-11T09:43:03,42.805,6.029,0.013,-0.003,0.003,103.0,104.0,102.0,13.3,1505.2,324.9,-0.7,1.8,2470.548,13.28,0.013,103.0
2021-06-11T09:46:03,42.805,6.029,0.009,0.004,-0.001,102.0,104.0,102.0,13.4,1505.2,327.6,-0.8,1.8,2470.528,13.28,0.009,66.0
2021-06-11T09:49:03,42.805,6.029,0.012,0.004,-0.001,103.0,103.0,101.0,13.4,1505.2,325.9,-0.8,1.8,2470.535,13.28,0.012,71.6
2021-06-11T09:52:03,42.805,6.029,0.027,0.002,0.008,104.0,103.0,101.0,13.3,1505.2,326.4,-0.7,1.8,2470.534,13.28,0.027,85.8
2021-06-11T09:55:03,42.805,6.029,0.017,-0.009,0.0,103.0,104.0,101.0,13.3,1505.2,328.7,-0.7,1.9,2470.506,13.28,0.019,117.9